GORIZONT 7 (14160 NORAD) Tracking and Keplerian Element Data

This shows tracking and keplerian element data for the satellite.

Feedback or suggestion? Click here.




ElementValue
Catalog14160
NameGORIZONT 7
Epoch Orbit14984
Epoch Day34.3711683
Epoch Year2025
RAAN315.8146
Inclination10.2952
Eccentricity0.0012351
Argument of Perigee334.9436
Mean Anonmoly202.3876
Mean Motion0.98347241
Decay Rate-1.6E-07
L11 14160U 83066A 25034.37116830 -.00000016 00000+0 00000+0 0 9994
L22 14160 10.2952 315.8146 0012351 334.9436 202.3876 0.98347241149847



Live tracking and technical data element details for GORIZONT 7 (NORAD 14160). GORIZONT 7 can be tracked NOW for your location showing map with azimuth and elevation plus other details from your city location.







IsCatalogInMostPopularTable: catalog: 14160, numindb: 376
Update: records affected: 1



GetName: 14160 GORIZONT 7

Hit Count: updated at: Fri, 16 May 2025 11:23:12 GMT